Location: Unspecified
(0.0000°N, 0.0000°E)
Time: 13:23:03
(UTC+01:00)

ARIANE 6 FM1 Upper Stage - Visible Passes

Search period start: 08 May 2026 00:00
Search period end: 18 May 2026 00:00
Orbit: 526 x 602 km, 62.0° (Epoch: 8 May)

Date Brightness Start Highest point End Pass type
(mag) Time Alt. Az. Time Alt. Az. Time Alt. Az.
12 May 5.0 20:57:40 10° NNW 20:58:38 17° N 20:58:38 17° N visible
13 May 4.4 20:57:03 10° NNW 20:58:59 28° NNW 20:58:59 28° NNW visible
14 May 4.2 20:56:41 10° NW 20:59:24 34° WNW 20:59:24 34° WNW visible
15 May 4.6 19:19:34 10° NE 19:21:14 12° ENE 19:22:54 10° E visible
15 May 4.6 20:56:39 10° WNW 20:59:53 24° WSW 20:59:53 24° WSW visible
16 May 4.0 19:17:37 10° NNE 19:20:40 21° ENE 19:23:45 10° ESE visible
16 May 5.2 20:57:10 10° W 20:59:24 14° WSW 21:00:24 13° SW visible
17 May 3.3 19:16:25 10° N 19:20:05 36° ENE 19:23:50 10° SE visible
